GSAT-10

Last updated on May 23, 2019, 3:05 a.m. UTC

1 38779U 12051B   19142.48021177 -.00000174  00000-0  00000+0 0  9992
2 38779   0.0116 299.1055 0003873 133.0764  63.5926  1.00270678 24390
UTC
Height (km)
Latitude
Longitude
Inclination
Orbital Period
UTC large
Height (km)
Speed (km/s)
/
Latitude / Longitude
Inclination (degrees)
Orbital Period (minutes)
Azimuth
Elevation
Range (km)
Doppler Factor
iOS Compass Heading
iOS Angle

Next 30 passes for location: Hong Kong

Rise time Rise Azimuth (degrees) Set time Set Azimuth (degrees) Duration Max altitude (degrees)

No matching passes for this satellites